Home   Weather   Chemnitz   Past weeks

Flag for Germany Past Weather in Chemnitz, Saxony, Germany — Yesterday and Last 2 Weeks

48 °F

Light rain. Fog.

Feels Like: 46 °F
Forecast: 40 / 49 °F
Wind: 6 mph from Northwest

Location: Dresden-Klotzsche

Current Time: Oct 25, 2016 at 10:32:57 AM

Latest Report: Oct 25, 2016 at 9:50 AM

Visibility: 1 mi

Pressure: 30.09 "Hg

Humidity: 100%

Dew Point: 48 °F

Location of ChemnitzLocation

Past Weather in Chemnitz — Graph


Chemnitz Temperature Yesterday

Maximum temperature yesterday: 52 °F (at 12:20 PM)
Minimum temperature yesterday: 45 °F (at 12:20 AM)
Average temperature yesterday: 49 °F

High & Low Weather Summary for the Past Weeks

High63 °F (Oct 16, 2:50 PM)100% (Oct 11, 1:20 AM)30.27 "Hg (Oct 11, 1:20 AM)
Low36 °F (Oct 11, 6:50 AM)64% (Oct 16, 2:50 PM)29.80 "Hg (Oct 15, 1:20 AM)
Average47 °F90%30.04 "Hg
* Reported Oct 10 9:20 AM — Oct 25 9:20 AM, Chemnitz, Weather by CustomWeather, © 2016

Note: Actual official high and low records may vary slightly from our data, if they occured in-between our weather recording intervals... More about our weather records


Chemnitz Weather History for the Previous 24 Hours

Scroll right to see more
Time TempWeatherWind HumidityBarometerVisibility
9:20 AM
Tue, Oct 25
48 °FLight rain. Fog.5 mph100%30.09 "Hg3 mi
8:50 AM48 °FBroken clouds.6 mph100%30.07 "Hg4 mi
8:20 AM48 °FDrizzle. Fog.5 mph100%30.07 "Hg3 mi
7:50 AM48 °FLight rain. Fog.6 mph100%30.04 "Hg2 mi
7:20 AM48 °FLight rain. Fog.5 mph100%30.01 "Hg3 mi
6:50 AM48 °FLight rain. Fog.3 mph100%30.01 "Hg2 mi
6:20 AM48 °FRain. Fog.5 mph100%30.01 "Hg2 mi
5:50 AM50 °FRain. Fog.6 mph100%30.01 "Hg1 mi
5:20 AM50 °FLight rain. Fog.5 mph100%29.98 "Hg2 mi
4:50 AM50 °FLight rain. Fog.3 mph100%29.98 "Hg2 mi
4:20 AM50 °FLight rain. Fog.3 mph100%29.98 "Hg2 mi
3:50 AM50 °FLight rain. Fog.2 mph100%29.98 "Hg2 mi
3:20 AM50 °FLight rain. Fog.3 mph100%29.98 "Hg2 mi
2:50 AM50 °FLight rain. Fog.5 mph100%29.98 "Hg2 mi
2:20 AM50 °FLight rain. Fog.7 mph100%29.98 "Hg2 mi
1:50 AM50 °FFog.1 mph100%29.95 "Hg2 mi
1:20 AM50 °FFog.2 mph100%29.95 "Hg3 mi
12:50 AM50 °FFog.2 mph94%29.95 "Hg3 mi
12:20 AM50 °FFog.3 mph94%29.95 "Hg3 mi
11:50 PM
Mon, Oct 24
50 °FPassing clouds.8 mph94%29.95 "Hg4 mi
11:20 PM50 °FClear.9 mph94%29.95 "Hg4 mi
10:50 PM50 °FClear.8 mph94%29.95 "Hg4 mi
10:20 PM50 °FFog.7 mph94%29.95 "Hg3 mi
9:50 PM52 °FFog.5 mph94%29.95 "Hg3 mi
9:20 PM50 °FLight rain. Fog.1 mph94%29.98 "Hg2 mi
8:50 PM50 °FLight rain. Mostly cloudy.5 mph94%29.95 "Hg4 mi
8:20 PM50 °FMostly cloudy.3 mph100%29.95 "Hg4 mi
7:50 PM50 °FLight rain. Fog.3 mph94%29.95 "Hg2 mi
7:20 PM50 °FLight rain. Fog.7 mph94%29.95 "Hg2 mi
6:50 PM50 °FLight rain. Fog.8 mph94%29.95 "Hg2 mi
6:20 PM50 °FLight rain. Fog.10 mph94%29.95 "Hg2 mi
5:50 PM50 °FLight rain. Fog.8 mph94%29.98 "Hg3 mi
5:20 PM50 °FRain. Fog.8 mph94%29.98 "Hg2 mi
4:50 PM50 °FRain. Fog.7 mph94%29.98 "Hg2 mi
4:20 PM50 °FLight rain. Cloudy.8 mph94%29.95 "Hg4 mi
3:50 PM50 °FLight rain. Mostly cloudy.8 mph94%29.98 "Hg4 mi
3:20 PM52 °FPartly sunny.6 mph88%29.98 "Hg5 mi
2:50 PM52 °FPartly sunny.7 mph88%30.01 "Hg6 mi
2:20 PM52 °FLight rain. Partly sunny.7 mph88%30.01 "HgN/A
1:50 PM52 °FPartly sunny.6 mph82%30.01 "HgN/A
1:20 PM52 °FPartly sunny.5 mph82%30.01 "HgN/A
12:50 PM52 °FPartly sunny.5 mph82%30.01 "HgN/A
12:20 PM52 °FPassing clouds.6 mph82%30.01 "HgN/A
11:50 AM50 °FPassing clouds.6 mph88%30.01 "HgN/A
11:20 AM50 °FClear.6 mph88%30.01 "Hg5 mi
10:50 AM50 °FClear.5 mph88%30.01 "Hg5 mi
10:20 AM48 °FClear.6 mph94%30.01 "Hg5 mi
Weather by CustomWeather, © 2016

See weather overviewHow to use our weather pages